• In Hungary
  • List of Countries
  • For 7 days
  • Water Temperature
  • Satellite Maps
  • Weather Map
  • News
  • Weather Widgets
  • user-avatar
    Login

    Hourly Weather Novy Bor

    Today, 14 December, Thursday

    Time Temperature Precipitation Wind Pressure Humidity
    00:00 -2°C° 0 mm 6 mps 715 mmHg 65%
    01:00 -2°C° 0 mm 7 mps 713 mmHg 67%
    02:00 -1°C° 0.7 mm 7 mps 713 mmHg 70%
    03:00 -1°C° 0.7 mm 7 mps 712 mmHg 74%
    04:00 -1°C° 0.7 mm 7 mps 711 mmHg 77%
    05:00 0°C° 0.3 mm 7 mps 711 mmHg 77%
    06:00 +1°C° 0.3 mm 6 mps 711 mmHg 78%
    07:00 +1°C° 0 mm 3 mps 711 mmHg 84%
    08:00 0°C° 0.3 mm 5 mps 711 mmHg 81%
    09:00 +1°C° 0.3 mm 6 mps 711 mmHg 78%
    10:00 +1°C° 0.3 mm 8 mps 712 mmHg 75%
    11:00 +1°C° 0.1 mm 8 mps 712 mmHg 71%
    12:00 +1°C° 0.1 mm 9 mps 713 mmHg 66%
    13:00 +1°C° 0.1 mm 9 mps 714 mmHg 61%
    14:00 0°C° 0 mm 7 mps 714 mmHg 65%
    15:00 -1°C° 0 mm 6 mps 714 mmHg 68%
    16:00 0°C° 0 mm 5 mps 714 mmHg 71%
    17:00 0°C° 0.1 mm 5 mps 714 mmHg 73%
    18:00 0°C° 0.1 mm 5 mps 714 mmHg 76%
    19:00 0°C° 0.1 mm 5 mps 713 mmHg 78%
    20:00 0°C° 0 mm 5 mps 713 mmHg 80%
    21:00 0°C° 0 mm 4 mps 713 mmHg 81%
    22:00 -1°C° 0 mm 4 mps 713 mmHg 82%
    23:00 -1°C° 0.1 mm 4 mps 713 mmHg 83%

    Tomorrow, 15 December, Friday

    Time Temperature Precipitation Wind Pressure Humidity
    00:00 -1°C° 0.1 mm 4 mps 712 mmHg 84%
    01:00 0°C° 0.1 mm 3 mps 712 mmHg 85%
    02:00 0°C° 0.1 mm 3 mps 712 mmHg 86%
    03:00 0°C° 0.1 mm 3 mps 711 mmHg 87%
    04:00 0°C° 0.1 mm 3 mps 711 mmHg 87%
    05:00 -1°C° 1 mm 4 mps 711 mmHg 87%
    06:00 -1°C° 1 mm 4 mps 711 mmHg 87%
    07:00 0°C° 1 mm 4 mps 711 mmHg 87%
    08:00 0°C° 1.1 mm 5 mps 711 mmHg 87%
    09:00 0°C° 1.1 mm 5 mps 712 mmHg 88%
    10:00 0°C° 1.1 mm 5 mps 712 mmHg 88%
    11:00 0°C° 0.2 mm 5 mps 713 mmHg 87%
    12:00 0°C° 0.2 mm 5 mps 713 mmHg 86%
    13:00 0°C° 0.2 mm 5 mps 714 mmHg 85%
    14:00 0°C° 0 mm 4 mps 714 mmHg 84%
    15:00 0°C° 0 mm 3 mps 715 mmHg 84%
    16:00 +1°C° 0 mm 2 mps 715 mmHg 83%
    17:00 -1°C° 0 mm 2 mps 716 mmHg 84%
    18:00 -2°C° 0 mm 2 mps 716 mmHg 85%
    19:00 -2°C° 0 mm 2 mps 716 mmHg 86%
    20:00 -2°C° 0 mm 2 mps 716 mmHg 87%
    21:00 -2°C° 0 mm 2 mps 716 mmHg 88%
    22:00 -2°C° 0 mm 2 mps 717 mmHg 88%
    23:00 -2°C° 0 mm 2 mps 717 mmHg 89%

    Day after tomorrow, 16 December, Saturday

    Time Temperature Precipitation Wind Pressure Humidity
    00:00 -2°C° 0 mm 2 mps 717 mmHg 90%
    01:00 -2°C° 0 mm 2 mps 717 mmHg 91%
    02:00 -2°C° 0 mm 2 mps 717 mmHg 92%
    03:00 -2°C° 0 mm 2 mps 717 mmHg 92%
    04:00 -2°C° 0 mm 2 mps 718 mmHg 93%
    05:00 -2°C° 0 mm 2 mps 718 mmHg 92%
    06:00 -2°C° 0 mm 2 mps 718 mmHg 92%
    07:00 -2°C° 0 mm 2 mps 719 mmHg 92%
    08:00 -1°C° 0 mm 2 mps 719 mmHg 90%
    09:00 -1°C° 0 mm 2 mps 720 mmHg 89%
    10:00 -1°C° 0 mm 3 mps 720 mmHg 87%
    11:00 0°C° 0 mm 3 mps 720 mmHg 86%
    12:00 0°C° 0 mm 3 mps 721 mmHg 84%
    13:00 -1°C° 0 mm 4 mps 721 mmHg 82%
    14:00 0°C° 0 mm 3 mps 721 mmHg 84%
    15:00 0°C° 0 mm 3 mps 721 mmHg 85%
    16:00 +1°C° 0 mm 2 mps 722 mmHg 87%
    17:00 -1°C° 0.1 mm 3 mps 722 mmHg 88%
    18:00 -1°C° 0.1 mm 3 mps 723 mmHg 89%
    19:00 -2°C° 0.1 mm 3 mps 723 mmHg 89%
    20:00 -2°C° 0 mm 3 mps 724 mmHg 89%
    21:00 -2°C° 0 mm 3 mps 724 mmHg 89%
    22:00 -2°C° 0 mm 3 mps 724 mmHg 89%
    23:00 -2°C° 0 mm 3 mps 725 mmHg 89%

    17 December, Sunday

    Time Temperature Precipitation Wind Pressure Humidity
    00:00 -4°C° 0 mm 4 mps 725 mmHg 89%
    01:00 -4°C° 0 mm 4 mps 725 mmHg 89%
    02:00 -3°C° 0.1 mm 4 mps 726 mmHg 88%
    03:00 -3°C° 0.1 mm 4 mps 726 mmHg 88%
    04:00 -3°C° 0.1 mm 4 mps 726 mmHg 87%
    05:00 -3°C° 0 mm 4 mps 727 mmHg 87%
    06:00 -3°C° 0 mm 4 mps 727 mmHg 87%
    07:00 -3°C° 0 mm 4 mps 728 mmHg 87%
    08:00 -3°C° 0 mm 4 mps 728 mmHg 86%
    09:00 -3°C° 0 mm 4 mps 729 mmHg 84%
    10:00 -2°C° 0 mm 5 mps 729 mmHg 83%
    11:00 -2°C° 0 mm 5 mps 730 mmHg 81%
    12:00 -2°C° 0 mm 5 mps 730 mmHg 80%
    13:00 -2°C° 0 mm 5 mps 730 mmHg 79%
    14:00 -2°C° 0.1 mm 5 mps 730 mmHg 81%
    15:00 -2°C° 0.1 mm 4 mps 731 mmHg 83%
    16:00 -1°C° 0.1 mm 3 mps 731 mmHg 86%
    17:00 -1°C° 0.2 mm 3 mps 732 mmHg 87%
    18:00 -1°C° 0.2 mm 3 mps 732 mmHg 88%
    19:00 -1°C° 0.2 mm 3 mps 732 mmHg 90%
    20:00 -1°C° 0.1 mm 3 mps 732 mmHg 90%
    21:00 -2°C° 0.1 mm 4 mps 733 mmHg 90%
    22:00 -3°C° 0.1 mm 4 mps 733 mmHg 90%
    23:00 -3°C° 0.1 mm 4 mps 733 mmHg 90%

    18 December, Monday

    Time Temperature Precipitation Wind Pressure Humidity
    00:00 -3°C° 0.1 mm 4 mps 733 mmHg 90%
    01:00 -3°C° 0.1 mm 4 mps 733 mmHg 90%
    02:00 -3°C° 0 mm 4 mps 732 mmHg 90%
    03:00 -3°C° 0 mm 4 mps 732 mmHg 90%
    04:00 -2°C° 0 mm 3 mps 731 mmHg 90%
    05:00 -3°C° 0.6 mm 4 mps 730 mmHg 90%
    06:00 -3°C° 0.6 mm 4 mps 729 mmHg 90%
    07:00 -2°C° 0.6 mm 5 mps 728 mmHg 90%
    08:00 -2°C° 1.7 mm 5 mps 727 mmHg 91%
    09:00 -2°C° 1.7 mm 5 mps 727 mmHg 92%
    10:00 -1°C° 1.7 mm 5 mps 726 mmHg 92%
    11:00 -1°C° 0.8 mm 5 mps 725 mmHg 94%
    12:00 -1°C° 0.8 mm 5 mps 725 mmHg 95%
    13:00 0°C° 0.8 mm 5 mps 725 mmHg 96%
    14:00 0°C° 0.2 mm 5 mps 725 mmHg 96%
    15:00 -1°C° 0.2 mm 4 mps 725 mmHg 95%
    16:00 -1°C° 0.2 mm 4 mps 726 mmHg 94%
    17:00 -1°C° 0.2 mm 4 mps 727 mmHg 95%
    18:00 0°C° 0.2 mm 3 mps 728 mmHg 95%
    19:00 0°C° 0.2 mm 3 mps 728 mmHg 95%
    20:00 0°C° 0.1 mm 3 mps 729 mmHg 95%
    21:00 -1°C° 0.1 mm 3 mps 730 mmHg 95%
    22:00 -1°C° 0.1 mm 3 mps 731 mmHg 95%
    23:00 -2°C° 0 mm 3 mps 732 mmHg 94%

    19 December, Tuesday

    Time Temperature Precipitation Wind Pressure Humidity
    00:00 -2°C° 0 mm 3 mps 733 mmHg 94%
    01:00 -3°C° 0 mm 2 mps 734 mmHg 93%
    02:00 -3°C° 0 mm 2 mps 734 mmHg 93%
    03:00 -3°C° 0 mm 2 mps 735 mmHg 93%
    04:00 -4°C° 0 mm 2 mps 736 mmHg 93%
    05:00 -4°C° 0 mm 2 mps 737 mmHg 93%
    06:00 -2°C° 0 mm 1 mps 737 mmHg 93%
    07:00 -2°C° 0 mm 1 mps 738 mmHg 92%
    08:00 -2°C° 0 mm 1 mps 738 mmHg 91%
    09:00 -2°C° 0 mm 1 mps 739 mmHg 91%
    10:00 -1°C° 0 mm 1 mps 739 mmHg 90%
    11:00 -1°C° 0 mm 1 mps 739 mmHg 89%
    12:00 -3°C° 0 mm 2 mps 739 mmHg 87%
    13:00 -2°C° 0 mm 2 mps 739 mmHg 86%
    14:00 -3°C° 0 mm 2 mps 739 mmHg 88%
    15:00 -1°C° 0 mm 1 mps 739 mmHg 89%
    16:00 -2°C° 0 mm 1 mps 739 mmHg 90%
    17:00 -2°C° 0 mm 1 mps 739 mmHg 91%
    18:00 -2°C° 0 mm 1 mps 739 mmHg 91%
    19:00 -4°C° 0 mm 2 mps 739 mmHg 91%
    20:00 -2°C° 0 mm 1 mps 739 mmHg 91%
    21:00 -2°C° 0 mm 1 mps 739 mmHg 91%
    22:00 -2°C° 0 mm 1 mps 739 mmHg 91%
    23:00 -2°C° 0 mm 1 mps 739 mmHg 91%
    Show more